Weather History for KPAH - August, 2013

Change the Weather History Date:

Friday, August 30, 2013

  Actual Average Record
Temperature  
Mean Temperature 83 °F 76 °F  
Max Temperature 95 °F 88 °F 100 °F (1947)
Min Temperature 71 °F 64 °F 46 °F (1986)
Degree Days  
Heating Degree Days 0 0  
Month to date heating degree days 0 0  
Since 1 June heating degree days 0 4  
Since 1 July heating degree days 0 0  
Cooling Degree Days 18 11  
Month to date cooling degree days 334 376  
Year to date cooling degree days 1152 1299  
Since 1 June cooling degree days 974 1127  
Growing Degree Days 33 (Base 50)    
Moisture  
Dew Point 72 °F    
Average Humidity 68    
Maximum Humidity 93    
Minimum Humidity 43    
Precipitation  
Precipitation 0.00 in 0.08 in 4.55 in (2014)
Month to date precipitation 3.71 2.67  
Year to date precipitation 40.77 32.39  
Snow  
Snow 0.00 in 0.00 in 0.00 in (2002)
Month to date snowfall 0.0 0.0  
Since 1 June snowfall 0.0 0.0  
Since 1 July snowfall 0.0 0.0  
Snow Depth 0.00 in    
Sea Level Pressure  
Sea Level Pressure 29.92 in    
Wind  
Wind Speed 3 mph (SW)    
Max Wind Speed 9 mph    
Max Gust Speed 13 mph    
Visibility 10 miles    
Events      
T = Trace of Precipitation, MM = Missing Value Source: NWS Daily Summary

Daily Weather History Graph

Daily Weather History Graph

Search for Another Location

Airport or City:

Trip Planner

Search our weather history database for the weather conditions in past years. The results will help you decide how hot, cold, wet, or windy it might be!

Date:

Astronomy

Aug. 30, 2013 Rise Set
Actual Time 6:24 AM CDT 7:26 PM CDT
Civil Twilight 5:57 AM CDT 7:52 PM CDT
Nautical Twilight 5:26 AM CDT 8:24 PM CDT
Astronomical Twilight 4:53 AM CDT 8:57 PM CDT
Moon 1:07 AM CDT (8/30) 3:37 PM CDT (8/30)
Length of Visible Light 13h 55m
Length of Day
13h 01m
Waning Crescent, 29% of the Moon is Illuminated
Aug 30
Waning Crescent
Sep 5
New
Sep 12
First Quarter
Sep 19
Full
Sep 26
Last Quarter

Hourly Weather History & Observations

Time (CDT) Temp. Heat Index Dew Point Humidity Pressure Visibility Wind Dir Wind Speed Gust Speed Precip Events Conditions
12:53 AM 77.0 °F - 72.0 °F 84% 29.95 in 10.0 mi WSW 4.6 mph - N/A   Clear
1:53 AM 75.9 °F - 71.1 °F 85% 29.95 in 10.0 mi WSW 4.6 mph - N/A   Clear
2:53 AM 75.0 °F - 71.1 °F 87% 29.94 in 10.0 mi WSW 4.6 mph - N/A   Clear
3:53 AM 73.9 °F - 71.1 °F 91% 29.95 in 9.0 mi Calm Calm - N/A   Clear
4:53 AM 72.0 °F - 69.1 °F 91% 29.95 in 9.0 mi Calm Calm - N/A   Clear
5:53 AM 73.0 °F - 70.0 °F 90% 29.95 in 9.0 mi Calm Calm - N/A   Clear
6:53 AM 73.0 °F - 69.1 °F 87% 29.97 in 8.0 mi Calm Calm - N/A   Clear
7:53 AM 79.0 °F - 72.0 °F 79% 29.98 in 10.0 mi WSW 3.5 mph - 0.01 in   Clear
8:53 AM 84.0 °F 90.2 °F 73.0 °F 69% 29.98 in 10.0 mi West 5.8 mph - N/A   Partly Cloudy
9:53 AM 89.1 °F 97.0 °F 73.0 °F 59% 29.97 in 10.0 mi West 5.8 mph - N/A   Clear
10:53 AM 91.0 °F 99.3 °F 73.0 °F 55% 29.96 in 10.0 mi WSW 4.6 mph - N/A   Clear
11:53 AM 93.0 °F 100.7 °F 72.0 °F 50% 29.95 in 10.0 mi West 5.8 mph - N/A   Clear
12:53 PM 95.0 °F 101.3 °F 70.0 °F 44% 29.94 in 10.0 mi Variable 3.5 mph - N/A   Clear
1:53 PM 95.0 °F 100.7 °F 69.1 °F 43% 29.93 in 10.0 mi Variable 3.5 mph - N/A   Clear
2:53 PM 95.0 °F 100.7 °F 69.1 °F 43% 29.91 in 10.0 mi West 3.5 mph - N/A   Clear
3:53 PM 93.9 °F 100.8 °F 71.1 °F 47% 29.89 in 10.0 mi SSW 3.5 mph - N/A   Clear
4:53 PM 93.0 °F 101.9 °F 73.0 °F 52% 29.88 in 10.0 mi SSW 3.5 mph - N/A   Clear
5:53 PM 91.0 °F 101.6 °F 75.0 °F 59% 29.88 in 10.0 mi South 3.5 mph - N/A   Clear
6:53 PM 88.0 °F 97.5 °F 75.0 °F 65% 29.87 in 10.0 mi SSW 3.5 mph - N/A   Clear
7:53 PM 84.9 °F 92.1 °F 73.9 °F 69% 29.87 in 10.0 mi South 3.5 mph - N/A   Clear
8:53 PM 82.9 °F 89.4 °F 73.9 °F 74% 29.87 in 10.0 mi SW 3.5 mph - N/A   Clear
9:53 PM 80.1 °F 84.5 °F 73.9 °F 81% 29.86 in 10.0 mi SW 3.5 mph - N/A   Clear
10:53 PM 80.1 °F 84.5 °F 73.9 °F 81% 29.86 in 10.0 mi Calm Calm - N/A   Clear
11:53 PM 79.0 °F - 73.9 °F 84% 29.86 in 10.0 mi Calm Calm - N/A   Clear